Temperature
24 22 22 23 23 24 24 24 24 24 25 24 23 23 22 22 22 21 21 21 21 22 22 22 22 21 21 21 21 20 20 20 20 20 19 19 19 19 19 19 19 19 19 19
22 23 24 24 24 24 24 24 24 24 25 24 23 23 23 22 22 22 21 21 22 22 22 22 22 21 21 21 21 20 20 20 20 20 20 19 19 19 19 19 19 19 19 19
24 24 25 25 25 25 24 24 24 24 24 23 23 23 22 22 22 22 22 22 22 22 22 22 22 21 21 21 21 21 21 20 20 20 20 19 19 19 19 19 19 19 19 19
24 24 25 25 25 25 24 25 25 24 23 22 23 22 22 21 21 21 22 22 22 22 22 22 22 22 22 22 21 21 21 21 20 20 20 20 20 19 19 19 19 19 19 19
24 25 25 25 26 25 25 25 24 23 22 21 21 21 21 21 21 21 21 22 22 22 23 23 23 22 22 22 22 21 21 21 20 20 20 20 20 19 19 19 19 19 18 18
24 25 25 25 25 25 25 23 22 20 20 21 22 21 21 20 21 21 21 22 22 23 23 23 23 23 22 22 22 21 21 21 20 20 20 20 20 19 19 19 19 19 19 19
24 25 25 25 25 24 23 22 21 22 20 21 21 21 21 22 22 22 22 22 22 23 23 23 23 23 22 22 22 22 21 21 21 20 20 20 20 19 19 19 19 19 19 19
23 23 24 25 25 24 23 22 21 22 21 20 20 21 21 22 22 22 22 22 22 22 23 23 23 23 22 22 22 22 22 21 21 20 20 20 20 19 19 19 19 19 19 19
22 23 24 25 25 24 22 21 20 19 20 20 20 21 21 22 21 21 21 22 22 22 23 23 23 23 22 22 22 22 22 21 21 20 20 20 20 19 19 19 19 19 19 18
21 23 24 24 24 23 22 19 18 19 20 21 21 21 21 21 20 20 20 20 21 22 22 23 22 22 22 22 22 22 22 21 21 21 20 20 20 19 19 19 19 19 19 18
21 22 23 23 23 23 21 20 18 17 18 20 21 21 21 20 20 19 19 20 21 21 22 22 22 22 22 22 22 22 21 21 21 21 20 20 20 19 19 19 19 19 19 18
19 18 20 22 22 22 22 20 18 20 19 18 19 20 21 20 19 19 19 20 20 21 22 22 22 22 21 21 21 21 21 21 21 21 20 20 20 19 19 19 19 19 18 18
19 18 20 21 21 21 22 20 19 17 16 17 19 21 20 19 19 19 19 19 20 20 21 21 21 21 21 21 21 21 21 21 21 20 20 20 19 19 19 19 19 18 18 18
19 17 19 20 20 21 21 21 19 18 18 18 19 20 19 18 18 18 19 19 20 20 20 21 21 21 21 21 21 21 21 20 20 20 20 19 19 19 19 19 19 18 18 18
18 18 19 19 20 21 21 21 20 20 19 19 19 19 19 18 18 18 19 19 19 19 20 20 20 20 20 20 20 20 20 20 20 19 19 19 19 19 19 19 18 18 18 18
16 18 19 20 20 21 21 21 20 20 20 19 19 19 18 18 18 18 18 18 18 19 19 19 20 20 20 20 20 20 20 20 20 19 19 19 18 18 18 18 18 18 18 18
15 17 18 18 19 20 20 20 20 20 19 19 19 19 17 16 17 17 18 18 18 18 19 19 19 19 20 20 20 19 19 19 19 19 19 18 18 18 18 18 18 18 18 17
15 15 14 16 19 20 19 19 20 19 18 18 18 17 16 17 17 18 18 18 18 18 18 18 19 19 19 19 19 19 19 19 19 19 19 18 18 18 18 18 18 17 17 17
14 14 14 15 17 18 19 19 18 18 18 17 17 16 16 16 17 17 17 17 17 17 18 18 18 18 18 18 18 18 18 18 18 18 18 18 18 17 17 17 17 17 17 17
13 13 14 15 18 18 19 19 19 18 18 17 16 16 16 16 15 16 17 17 17 17 17 17 17 18 18 18 18 18 18 18 18 17 17 17 17 17 17 17 17 17 17 17
15 14 14 15 16 17 17 18 19 19 18 17 17 16 16 16 16 17 17 17 17 17 17 17 17 17 17 17 17 17 17 17 17 17 17 17 17 17 17 17 16 16 16 16
14 14 14 13 16 16 17 17 17 17 17 17 17 17 17 17 17 17 17 17 17 16 16 16 17 17 17 17 17 17 17 17 17 16 16 16 16 16 16 16 16 16 16 16
13 13 13 13 14 15 16 16 17 18 17 17 18 17 17 17 17 17 16 16 16 16 16 16 16 16 16 16 16 17 17 16 16 16 16 16 16 16 16 16 16 15 15 15
13 12 12 13 14 15 16 17 17 18 18 18 18 17 17 16 16 16 16 16 16 15 15 15 15 15 16 16 16 16 16 16 16 15 15 15 15 15 15 15 15 15 15 15
13 12 12 13 13 15 16 16 17 17 17 17 17 17 17 16 16 15 15 15 15 15 15 15 15 15 15 15 15 16 16 15 15 15 15 15 15 15 15 15 14 14 14 14
12 12 13 13 14 13 15 16 16 16 16 16 16 16 16 15 15 15 15 15 15 15 15 15 14 14 14 14 15 15 15 15 15 15 15 14 14 14 14 14 14 14 14 14
Wind_Speed
3 4 3 6 6 5 4 3 3 5 2 2 2 3 4 6 7 7 7 6 7 7 5 4 5 5 5 5 5 5 5 4 4 3 2 2 1 0 0 0 1 1 1 2
4 2 7 4 4 3 3 1 2 3 1 2 1 3 3 5 8 9 9 9 8 6 5 5 5 5 6 6 6 6 5 5 4 3 3 2 2 1 0 1 1 0 1 2
5 5 3 4 3 3 2 4 4 3 2 3 2 4 3 3 4 5 6 7 7 9 9 8 7 7 6 6 7 7 6 5 4 4 3 3 3 2 2 1 1 1 0 1
4 4 3 3 4 5 4 5 5 3 2 1 2 2 6 3 3 6 8 8 9 10 9 8 8 8 8 8 6 5 6 5 4 4 4 4 3 2 1 0 0 1 1 1
4 2 3 4 5 6 5 1 3 2 3 2 2 2 7 1 4 7 8 10 10 10 11 11 11 10 8 7 6 5 5 5 4 4 5 4 3 2 1 1 1 1 2 2
4 2 3 4 1 4 5 7 7 6 5 1 3 3 6 4 6 6 6 8 9 10 10 10 9 7 7 6 6 6 6 5 5 5 5 5 5 3 2 1 1 0 1 1
4 3 1 2 3 3 5 6 4 5 4 4 2 2 7 6 6 6 7 7 7 8 9 9 9 9 9 8 8 8 7 6 5 5 5 5 5 5 4 3 2 1 0 1
1 4 3 2 5 5 3 7 7 4 4 4 2 4 6 4 2 2 3 4 5 5 6 7 8 9 9 9 9 8 8 7 6 6 5 4 4 3 3 3 2 2 2 2
5 5 4 1 2 7 5 3 5 6 2 1 5 5 6 2 4 2 2 3 3 5 6 6 7 8 8 8 9 9 9 7 6 6 5 3 3 3 3 3 2 2 2 1
7 3 4 2 5 5 5 8 6 6 4 2 5 4 3 4 3 2 1 2 2 3 4 4 5 7 7 7 7 7 7 7 6 6 5 5 4 4 4 3 3 3 3 2
5 4 3 3 3 3 4 5 6 5 5 5 3 5 3 5 4 3 2 2 2 2 3 3 4 5 6 6 7 6 6 5 5 6 5 4 4 4 3 3 3 3 2 2
4 5 1 4 3 1 4 6 6 5 3 4 4 6 4 1 1 1 1 1 1 1 1 2 4 5 5 5 6 6 5 5 5 5 5 4 4 3 3 3 3 3 3 2
6 6 3 5 5 3 3 3 4 6 5 5 4 5 3 4 4 2 2 2 1 2 3 3 4 4 4 4 5 5 5 5 4 4 4 4 4 4 4 4 3 3 3 3
6 5 6 8 7 4 2 1 4 5 4 4 6 5 4 2 1 1 1 2 2 3 3 3 3 2 3 3 3 4 3 3 3 3 3 4 4 4 4 3 3 3 4 3
5 4 3 2 2 3 2 3 4 4 7 7 6 6 6 4 3 2 1 2 4 4 3 3 2 2 2 2 2 3 3 3 3 3 3 4 3 3 3 3 3 4 4 4
4 5 3 1 1 1 0 1 3 3 3 3 2 4 3 1 1 1 1 2 3 2 1 2 2 2 1 1 2 2 2 3 3 4 4 3 2 3 3 3 3 3 3 3
3 5 4 2 2 2 2 3 4 2 1 4 4 5 1 0 1 3 2 2 2 1 1 1 0 0 1 1 2 2 3 3 4 4 3 3 4 3 3 3 3 3 3 3
6 5 4 2 3 3 7 2 3 5 1 1 1 1 3 2 1 1 2 2 1 1 1 0 1 1 0 0 1 2 2 3 3 2 2 2 3 3 3 2 3 3 3 3
4 7 5 4 4 4 4 1 3 4 2 1 2 2 2 3 4 2 2 1 0 1 1 1 1 1 1 0 1 2 2 2 3 3 3 3 3 3 2 2 3 3 2 2
6 5 5 4 4 6 6 3 1 4 2 3 3 4 3 3 1 3 2 1 2 1 1 1 1 1 0 1 1 1 0 1 3 4 4 3 4 4 4 4 3 2 2 2
4 4 4 4 3 5 5 4 1 3 6 3 4 4 4 3 4 3 1 1 1 1 2 1 0 0 1 1 1 1 1 3 4 3 3 3 4 4 4 3 3 2 2 2
3 3 3 4 3 6 3 1 4 5 2 2 3 3 3 2 1 1 1 1 1 2 2 1 1 2 2 1 2 2 3 4 3 2 2 3 3 3 3 3 3 3 3 3
3 5 5 6 5 4 3 3 3 2 2 2 3 3 3 2 1 1 1 1 1 2 2 2 1 2 2 2 2 3 4 3 2 2 3 4 4 3 3 4 3 3 3 3
2 2 3 1 4 4 4 2 2 0 1 2 3 3 3 3 2 1 1 1 2 2 2 2 1 2 3 3 2 3 3 2 1 2 3 4 3 3 3 3 3 4 4 4
3 2 2 2 4 4 4 3 2 1 1 1 1 1 3 3 2 2 2 2 2 2 2 2 2 2 4 4 4 3 2 1 1 2 3 3 3 3 3 3 3 4 4 5
3 5 5 5 6 4 5 4 1 1 1 1 1 1 1 2 3 2 3 3 2 2 2 2 2 3 4 3 4 4 2 1 1 2 3 2 2 2 2 2 2 3 4 4
Wind_Direction
69 86 195 217 198 184 169 180 263 272 234 128 196 237 234 181 177 185 191 195 201 206 203 184 179 172 163 163 164 171 165 161 144 137 140 137 162 254 15 294 238 206 189 170
51 249 228 198 182 161 163 189 270 307 13 116 205 273 250 191 196 193 192 198 203 195 183 186 182 175 177 181 182 180 178 171 165 161 158 151 144 135 200 338 9 163 168 170
187 227 194 166 169 171 214 193 212 227 13 51 76 337 295 250 207 198 198 200 200 198 196 193 191 187 180 184 188 189 185 177 172 154 125 100 79 54 40 13 347 332 173 169
228 246 185 179 199 170 237 218 187 178 111 308 80 274 283 258 249 219 212 205 203 203 198 194 195 193 191 193 184 179 173 169 164 151 143 139 148 168 203 229 319 355 27 81
238 206 182 210 213 175 206 127 120 117 124 61 22 173 283 308 261 248 228 218 210 201 197 197 198 197 193 186 177 175 166 166 164 157 155 151 154 174 150 91 60 17 12 25
244 245 197 208 165 145 130 74 59 53 70 16 244 183 274 238 234 245 226 218 210 202 199 199 195 186 185 176 170 170 168 175 169 166 166 164 169 162 145 136 129 357 353 1
318 317 278 136 86 54 88 88 37 5 10 258 266 199 251 254 238 220 214 208 199 194 191 192 188 185 184 181 179 176 174 183 179 175 178 176 174 166 175 187 190 187 234 296
185 285 253 196 173 177 166 137 154 192 224 278 327 236 257 274 269 231 201 182 171 178 185 190 191 187 186 184 180 177 179 186 184 183 190 185 177 177 190 194 188 199 218 236
174 250 289 245 171 137 130 135 154 133 137 309 288 287 309 352 25 45 101 127 163 181 186 190 184 179 182 180 180 179 178 181 181 183 182 181 183 187 197 197 193 204 219 225
157 218 301 313 75 44 124 138 98 115 143 242 296 290 271 300 329 360 58 183 197 185 187 185 180 182 180 177 173 170 175 179 179 176 180 186 188 196 196 186 194 205 212 211
137 155 317 32 127 167 93 88 99 108 141 156 237 271 252 239 230 213 221 226 205 175 181 182 176 171 164 157 157 164 172 171 171 176 178 178 185 196 190 196 211 214 214 209
137 125 221 272 286 174 138 145 140 143 200 173 182 260 323 252 181 163 153 30 71 140 146 151 144 141 140 148 158 165 172 179 185 180 174 181 188 187 194 206 217 210 211 214
133 116 85 353 348 24 86 119 129 121 120 156 174 260 352 34 57 62 78 59 50 86 84 93 101 129 145 152 153 159 172 187 189 177 177 183 190 195 205 212 215 215 220 225
118 111 158 189 210 194 162 155 154 129 149 190 217 242 300 350 22 2 41 60 60 72 85 93 98 113 140 141 145 155 169 174 168 168 181 195 205 208 209 212 209 216 218 220
100 123 162 201 207 159 170 191 175 174 181 183 217 222 257 247 223 207 130 84 79 70 67 82 96 86 83 102 120 145 159 159 158 160 192 214 212 208 206 206 210 215 221 225
75 121 118 66 27 117 194 252 195 198 180 196 211 254 271 251 128 108 117 108 97 90 76 65 69 80 94 125 143 148 163 169 159 172 198 206 207 210 215 217 206 206 217 224
89 117 114 213 297 52 273 238 188 168 169 170 203 241 246 111 179 188 163 117 121 128 103 91 83 219 233 213 174 175 178 170 166 183 199 202 203 210 222 222 211 216 220 215
130 113 124 131 92 215 242 279 146 137 140 174 215 243 193 187 203 157 126 131 120 66 16 254 217 209 245 243 172 156 156 159 168 183 196 202 201 209 205 201 216 231 228 216
133 134 121 126 163 259 290 253 153 150 221 230 179 147 121 97 57 17 16 68 190 255 275 270 247 203 156 150 152 134 155 164 182 202 208 208 195 194 193 203 218 223 217 224
62 92 113 124 151 216 243 287 281 118 250 244 167 156 142 92 89 259 282 335 349 346 321 301 336 74 135 220 135 124 166 187 225 224 219 216 208 205 208 214 221 221 212 226
51 55 106 143 188 250 263 292 68 162 240 229 176 169 165 181 209 231 266 305 311 320 312 310 343 120 257 251 143 168 245 265 263 246 222 221 217 215 214 214 215 208 212 230
154 141 163 144 174 243 298 66 172 217 251 177 180 179 172 178 161 164 210 268 329 343 330 319 316 312 306 263 173 203 245 260 271 268 254 246 236 229 223 206 216 210 206 221
182 188 183 185 208 256 291 244 252 197 192 209 183 183 160 169 224 247 276 291 318 323 318 304 276 304 314 284 206 212 251 256 250 258 261 259 245 230 220 210 216 215 214 223
275 148 139 225 277 292 306 314 331 272 207 214 182 178 172 194 222 249 272 297 315 310 312 313 307 313 309 300 281 263 267 250 214 264 268 260 246 238 231 216 210 215 220 226
232 163 140 248 281 315 312 291 289 356 38 61 87 195 184 178 214 230 250 270 278 291 299 307 291 294 301 311 310 306 298 261 242 261 263 262 254 235 232 229 223 219 225 222
213 182 178 226 231 213 257 268 259 55 26 19 40 342 287 191 209 229 248 265 273 279 291 301 303 294 293 301 308 307 295 253 228 269 274 266 263 256 240 237 257 242 231 230
Height
1489 1495 1501 1499 1498 1498 1501 1506 1509 1503 1495 1499 1502 1502 1499 1499 1500 1502 1504 1505 1507 1508 1511 1513 1514 1516 1517 1519 1520 1521 1523 1524 1525 1526 1528 1529 1530 1531 1531 1532 1532 1532 1533 1533
1495 1498 1492 1491 1493 1496 1500 1506 1507 1501 1495 1499 1503 1503 1499 1499 1499 1499 1501 1503 1505 1508 1510 1511 1513 1515 1516 1518 1519 1521 1522 1524 1525 1527 1528 1529 1530 1531 1532 1532 1533 1533 1533 1533
1495 1492 1488 1490 1494 1498 1500 1504 1504 1504 1499 1500 1504 1508 1502 1498 1498 1499 1500 1501 1504 1506 1507 1509 1511 1513 1515 1517 1518 1520 1522 1524 1525 1527 1528 1529 1530 1531 1532 1532 1532 1533 1533 1533
1491 1487 1487 1490 1493 1495 1503 1494 1496 1499 1508 1516 1510 1525 1508 1501 1499 1497 1497 1499 1500 1502 1504 1506 1509 1511 1513 1515 1518 1520 1522 1523 1525 1526 1527 1528 1529 1530 1531 1532 1532 1532 1533 1533
1490 1486 1487 1491 1489 1490 1494 1490 1495 1500 1508 1518 1516 1523 1515 1503 1502 1497 1495 1495 1496 1499 1501 1503 1505 1508 1511 1514 1517 1519 1521 1523 1524 1526 1527 1528 1529 1530 1531 1532 1532 1532 1532 1533
1486 1483 1483 1484 1484 1486 1488 1495 1502 1510 1517 1529 1519 1523 1519 1507 1499 1493 1491 1491 1493 1495 1498 1500 1504 1507 1510 1513 1515 1518 1519 1521 1523 1525 1526 1527 1528 1529 1530 1531 1532 1532 1532 1532
1490 1485 1482 1482 1487 1489 1492 1508 1527 1530 1537 1533 1518 1520 1515 1495 1490 1488 1488 1488 1490 1492 1495 1498 1501 1504 1507 1510 1513 1515 1518 1520 1522 1523 1525 1526 1527 1529 1529 1530 1531 1531 1532 1532
1501 1501 1485 1482 1485 1492 1496 1504 1527 1537 1540 1532 1520 1520 1504 1489 1487 1487 1487 1488 1490 1491 1493 1496 1498 1501 1504 1507 1510 1513 1515 1517 1520 1522 1524 1525 1527 1528 1528 1529 1530 1531 1531 1531
1501 1499 1482 1480 1480 1485 1497 1505 1506 1523 1529 1534 1526 1513 1499 1489 1488 1488 1488 1488 1489 1490 1492 1494 1496 1498 1501 1504 1507 1510 1513 1515 1518 1520 1522 1524 1525 1527 1527 1528 1529 1529 1530 1530
1489 1496 1486 1481 1481 1486 1490 1500 1513 1525 1536 1539 1526 1518 1512 1497 1493 1490 1489 1488 1488 1489 1491 1492 1494 1496 1499 1502 1505 1508 1511 1513 1516 1518 1520 1522 1523 1525 1526 1527 1527 1528 1528 1529
1485 1496 1493 1488 1490 1494 1496 1503 1512 1523 1525 1537 1536 1522 1497 1495 1492 1491 1489 1488 1488 1489 1489 1491 1493 1495 1497 1500 1503 1506 1509 1511 1514 1516 1518 1520 1521 1523 1524 1524 1525 1526 1527 1527
1486 1497 1504 1495 1487 1486 1489 1498 1508 1519 1525 1529 1531 1520 1492 1490 1489 1489 1489 1488 1488 1489 1490 1491 1492 1494 1497 1499 1502 1504 1507 1510 1512 1514 1516 1518 1519 1520 1521 1522 1523 1524 1525 1525
1485 1498 1510 1508 1502 1493 1494 1497 1501 1510 1522 1529 1528 1515 1492 1490 1490 1490 1490 1490 1490 1490 1490 1491 1493 1495 1497 1499 1501 1503 1506 1508 1510 1512 1514 1515 1516 1518 1519 1519 1520 1521 1522 1523
1479 1496 1504 1511 1506 1497 1496 1497 1499 1506 1518 1522 1516 1507 1497 1494 1492 1492 1491 1491 1491 1491 1492 1492 1494 1495 1497 1499 1501 1503 1505 1508 1509 1510 1511 1513 1514 1515 1516 1517 1518 1519 1520 1520
1479 1494 1494 1495 1491 1491 1493 1495 1496 1500 1504 1510 1505 1503 1496 1494 1493 1492 1492 1492 1492 1492 1493 1494 1495 1495 1497 1498 1500 1502 1504 1505 1507 1508 1509 1510 1511 1512 1513 1514 1515 1516 1516 1517
1483 1493 1494 1495 1492 1492 1494 1493 1494 1495 1497 1499 1499 1499 1493 1492 1492 1492 1492 1492 1493 1493 1494 1494 1495 1495 1496 1497 1499 1500 1502 1503 1504 1505 1507 1508 1509 1509 1510 1511 1512 1512 1513 1513
1488 1493 1500 1504 1497 1494 1502 1494 1493 1494 1494 1495 1499 1496 1492 1492 1491 1492 1492 1492 1493 1493 1494 1494 1495 1495 1496 1497 1498 1499 1500 1501 1502 1503 1504 1505 1505 1506 1507 1507 1508 1509 1509 1510
1488 1496 1504 1507 1503 1512 1500 1487 1487 1491 1492 1492 1492 1491 1491 1491 1491 1492 1492 1493 1493 1493 1494 1494 1494 1495 1495 1496 1497 1497 1499 1499 1500 1501 1501 1502 1503 1503 1503 1504 1504 1505 1506 1506
1483 1492 1505 1512 1512 1506 1495 1488 1488 1491 1493 1490 1490 1490 1491 1491 1491 1492 1493 1493 1494 1493 1493 1493 1493 1494 1494 1494 1495 1495 1496 1497 1497 1498 1498 1499 1499 1500 1500 1500 1501 1502 1503 1503
1486 1490 1501 1509 1509 1511 1496 1486 1484 1488 1495 1488 1488 1490 1490 1491 1495 1494 1492 1492 1493 1492 1492 1492 1492 1492 1492 1492 1493 1493 1493 1494 1494 1495 1495 1496 1497 1497 1497 1497 1498 1499 1499 1499
1494 1498 1503 1507 1507 1501 1489 1485 1485 1498 1495 1486 1486 1488 1489 1490 1491 1491 1491 1491 1492 1491 1491 1491 1491 1490 1491 1491 1491 1491 1491 1491 1492 1492 1493 1493 1493 1493 1494 1494 1494 1495 1495 1495
1497 1501 1505 1507 1507 1503 1486 1485 1488 1489 1484 1484 1485 1486 1487 1488 1489 1489 1489 1490 1490 1490 1490 1490 1489 1489 1489 1489 1489 1489 1489 1489 1489 1489 1489 1490 1490 1490 1490 1490 1490 1491 1491 1491
1494 1495 1497 1498 1497 1489 1485 1485 1484 1483 1483 1483 1484 1486 1487 1487 1488 1488 1488 1489 1489 1489 1489 1488 1488 1487 1487 1487 1487 1486 1486 1486 1486 1486 1486 1486 1486 1486 1485 1486 1485 1486 1487 1487
1491 1490 1492 1493 1489 1486 1485 1484 1483 1483 1483 1483 1484 1485 1486 1486 1487 1487 1487 1487 1487 1487 1487 1486 1486 1484 1484 1484 1484 1483 1483 1483 1482 1481 1482 1482 1482 1481 1481 1481 1481 1482 1482 1482
1489 1489 1491 1491 1487 1485 1484 1483 1483 1482 1482 1482 1483 1484 1484 1484 1485 1485 1485 1485 1485 1485 1485 1484 1483 1482 1481 1481 1480 1480 1480 1479 1478 1478 1479 1479 1478 1477 1477 1477 1477 1477 1477 1478
1486 1487 1489 1488 1484 1484 1483 1483 1483 1482 1482 1482 1482 1483 1483 1484 1484 1484 1483 1483 1483 1483 1482 1481 1481 1480 1479 1478 1477 1477 1476 1476 1475 1475 1475 1475 1474 1474 1473 1473 1473 1473 1473 1473